| time (UTC) | temp F | wind direction | speed MPH | gust MPH | rain 1hr in | rain 24hr in | rain mn in | humidity % | barometer mb |
| 20260905213033 | 75 | 200 | 1.0 | 4.0 | 0.00 | 0.00 | 0.00 | 36 | 1010.9 |
| 20260905211533 | 75 | 195 | 0.0 | 4.0 | 0.00 | 0.00 | 0.00 | 38 | 1010.9 |
| 20260905204532 | 74 | 226 | 0.0 | 5.0 | 0.00 | 0.00 | 0.00 | 38 | 1011.0 |
| 20260905203007 | 74 | 297 | 0.0 | 4.0 | 0.00 | 0.00 | 0.00 | 37 | 1011.0 |
| 20260905201549 | 75 | 255 | 1.0 | 3.0 | 0.00 | 0.00 | 0.00 | 36 | 1011.0 |
| 20260905200021 | 76 | 187 | 1.0 | 6.0 | 0.00 | 0.00 | 0.00 | 36 | 1011.0 |
| 20260905194536 | 74 | 204 | 1.0 | 4.0 | 0.00 | 0.00 | 0.00 | 38 | 1011.1 |
| 20260905193041 | 73 | 296 | 2.0 | 5.0 | 0.00 | 0.00 | 0.00 | 37 | 1011.2 |
| 20260905191530 | 72 | 207 | 1.0 | 5.0 | 0.00 | 0.00 | 0.00 | 38 | 1011.2 |
| 20260905190047 | 73 | 295 | 1.0 | 5.0 | 0.00 | 0.00 | 0.00 | 37 | 1011.3 |
| 20260905184540 | 72 | 143 | 0.0 | 3.0 | 0.00 | 0.00 | 0.00 | 39 | 1011.2 |
| 20260905183038 | 73 | 236 | 0.0 | 4.0 | 0.00 | 0.00 | 0.00 | 41 | 1011.2 |
| 20260905181537 | 73 | 294 | 1.0 | 4.0 | 0.00 | 0.00 | 0.00 | 40 | 1011.1 |
| 20260905180048 | 73 | 203 | 0.0 | 5.0 | 0.00 | 0.00 | 0.00 | 38 | 1011.0 |
| 20260905174531 | 71 | 202 | 0.0 | 2.0 | 0.00 | 0.00 | 0.00 | 45 | 1011.1 |
| 20260905173027 | 69 | 234 | 0.0 | 2.0 | 0.00 | 0.00 | 0.00 | 49 | 1011.2 |
| 20260905171528 | 68 | 96 | 0.0 | 2.0 | 0.00 | 0.00 | 0.00 | 53 | 1011.2 |
| 20260905170020 | 67 | 233 | 0.0 | 0.0 | 0.00 | 0.00 | 0.00 | 54 | 1011.1 |
| 20260905164514 | 64 | 216 | 0.0 | 0.0 | 0.00 | 0.02 | 0.00 | 71 | 1011.1 |
| 20260905163009 | 62 | 216 | 0.0 | 0.0 | 0.00 | 0.02 | 0.00 | 73 | 1011.1 |
| 20260905161511 | 59 | 216 | 0.0 | 0.0 | 0.00 | 0.02 | 0.00 | 77 | 1011.0 |
| 20260905154603 | 54 | 216 | 0.0 | 0.0 | 0.00 | 0.03 | 0.00 | 84 | 1011.2 |
| 20260905153053 | 53 | 216 | 0.0 | 0.0 | 0.00 | 0.03 | 0.00 | 86 | 1011.2 |
| 20260905151551 | 50 | 218 | 0.0 | 0.0 | 0.00 | 0.03 | 0.00 | 89 | 1011.1 |
| 20260905150051 | 48 | 218 | 0.0 | 0.0 | 0.00 | 0.03 | 0.00 | 90 | 1011.1 |
| 20260905144549 | 47 | 218 | 0.0 | 0.0 | 0.00 | 0.03 | 0.00 | 89 | 1011.1 |
| 20260905143048 | 47 | 218 | 0.0 | 0.0 | 0.00 | 0.03 | 0.00 | 89 | 1011.1 |
| 20260905141546 | 46 | 218 | 0.0 | 0.0 | 0.00 | 0.03 | 0.00 | 89 | 1011.0 |
| 20260905140042 | 46 | 218 | 0.0 | 0.0 | 0.00 | 0.03 | 0.00 | 89 | 1010.8 |
| 20260905134613 | 46 | 218 | 0.0 | 0.0 | 0.00 | 0.03 | 0.00 | 89 | 1010.7 |
| 20260905133008 | 46 | 218 | 0.0 | 0.0 | 0.00 | 0.03 | 0.00 | 89 | 1010.6 |
| 20260905131505 | 47 | 218 | 0.0 | 0.0 | 0.00 | 0.03 | 0.00 | 91 | 1010.4 |
| 20260905130004 | 47 | 218 | 0.0 | 0.0 | 0.00 | 0.03 | 0.00 | 91 | 1010.2 |
| 20260905124503 | 47 | 217 | 0.0 | 0.0 | 0.00 | 0.06 | 0.00 | 90 | 1010.2 |
| 20260905123001 | 46 | 211 | 0.0 | 0.0 | 0.00 | 0.06 | 0.00 | 87 | 1010.3 |
| 20260905121602 | 46 | 211 | 0.0 | 0.0 | 0.00 | 0.06 | 0.00 | 86 | 1010.3 |
| 20260905120109 | 47 | 211 | 0.0 | 0.0 | 0.00 | 0.06 | 0.00 | 86 | 1010.4 |
| 20260905114608 | 47 | 211 | 0.0 | 0.0 | 0.00 | 0.09 | 0.00 | 86 | 1010.4 |
| 20260905113058 | 47 | 211 | 0.0 | 0.0 | 0.00 | 0.09 | 0.00 | 85 | 1010.4 |
| 20260905111641 | 48 | 211 | 0.0 | 0.0 | 0.00 | 0.09 | 0.00 | 85 | 1010.5 |
| 20260905110051 | 48 | 211 | 0.0 | 0.0 | 0.00 | 0.09 | 0.00 | 84 | 1010.6 |
| 20260905104549 | 48 | 211 | 0.0 | 0.0 | 0.00 | 0.09 | 0.00 | 83 | 1010.5 |
| 20260905103047 | 49 | 211 | 0.0 | 0.0 | 0.00 | 0.09 | 0.00 | 82 | 1010.4 |
| 20260905101545 | 49 | 211 | 0.0 | 0.0 | 0.00 | 0.09 | 0.00 | 82 | 1010.5 |
| 20260905100042 | 49 | 211 | 0.0 | 0.0 | 0.00 | 0.09 | 0.00 | 82 | 1010.6 |
| 20260905094541 | 50 | 211 | 0.0 | 0.0 | 0.00 | 0.09 | 0.00 | 82 | 1010.5 |
| 20260905093042 | 50 | 211 | 0.0 | 0.0 | 0.00 | 0.09 | 0.00 | 82 | 1010.6 |
| 20260905091537 | 50 | 211 | 0.0 | 0.0 | 0.00 | 0.09 | 0.00 | 81 | 1010.5 |
| 20260905090036 | 51 | 211 | 0.0 | 0.0 | 0.00 | 0.09 | 0.00 | 80 | 1010.5 |
| 20260905084534 | 51 | 211 | 0.0 | 0.0 | 0.00 | 0.09 | 0.00 | 80 | 1010.7 |
| 20260905083033 | 51 | 211 | 0.0 | 0.0 | 0.00 | 0.09 | 0.00 | 81 | 1010.6 |
| 20260905081531 | 51 | 211 | 0.0 | 0.0 | 0.00 | 0.09 | 0.00 | 81 | 1010.6 |
| 20260905080033 | 51 | 211 | 0.0 | 0.0 | 0.00 | 0.09 | 0.00 | 81 | 1010.7 |
| 20260905074529 | 51 | 211 | 0.0 | 0.0 | 0.00 | 0.09 | 0.00 | 82 | 1010.7 |
| 20260905073036 | 51 | 211 | 0.0 | 0.0 | 0.00 | 0.09 | 0.00 | 81 | 1010.7 |
| 20260905071526 | 51 | 211 | 0.0 | 0.0 | 0.00 | 0.09 | 0.00 | 79 | 1010.7 |
| 20260905070043 | 52 | 211 | 0.0 | 0.0 | 0.00 | 0.09 | 0.00 | 78 | 1010.7 |
| 20260905064537 | 52 | 211 | 0.0 | 0.0 | 0.00 | 0.09 | 0.09 | 76 | 1010.7 |
| 20260905063020 | 53 | 211 | 0.0 | 0.0 | 0.00 | 0.09 | 0.09 | 75 | 1010.6 |
| 20260905061519 | 53 | 211 | 0.0 | 0.0 | 0.00 | 0.09 | 0.09 | 74 | 1010.6 |
| 20260905060021 | 53 | 211 | 0.0 | 0.0 | 0.00 | 0.09 | 0.09 | 73 | 1010.7 |
| 20260905054524 | 54 | 211 | 0.0 | 0.0 | 0.00 | 0.09 | 0.09 | 71 | 1010.6 |
| 20260905053012 | 54 | 211 | 0.0 | 0.0 | 0.00 | 0.09 | 0.09 | 70 | 1010.7 |
| 20260905051518 | 55 | 211 | 0.0 | 0.0 | 0.00 | 0.09 | 0.09 | 68 | 1010.8 |
| 20260905050010 | 56 | 211 | 0.0 | 0.0 | 0.00 | 0.09 | 0.09 | 67 | 1010.8 |
| 20260905044509 | 57 | 211 | 0.0 | 0.0 | 0.00 | 0.09 | 0.09 | 66 | 1010.8 |
| 20260905043007 | 58 | 211 | 0.0 | 0.0 | 0.00 | 0.09 | 0.09 | 64 | 1010.6 |
| 20260905041506 | 59 | 211 | 0.0 | 0.0 | 0.00 | 0.09 | 0.09 | 64 | 1010.5 |
| 20260905040013 | 60 | 211 | 0.0 | 0.0 | 0.00 | 0.09 | 0.09 | 62 | 1010.5 |
| 20260905034508 | 61 | 211 | 0.0 | 0.0 | 0.00 | 0.09 | 0.09 | 60 | 1010.2 |
| 20260905033004 | 62 | 211 | 0.0 | 0.0 | 0.00 | 0.09 | 0.09 | 58 | 1009.9 |
| 20260905031502 | 63 | 211 | 0.0 | 0.0 | 0.00 | 0.09 | 0.09 | 55 | 1009.8 |
| 20260905030057 | 65 | 211 | 0.0 | 0.0 | 0.00 | 0.09 | 0.09 | 52 | 1009.6 |
| 20260905024550 | 66 | 211 | 0.0 | 0.0 | 0.00 | 0.09 | 0.09 | 49 | 1009.4 |
| 20260905023047 | 66 | 211 | 0.0 | 0.0 | 0.00 | 0.09 | 0.09 | 48 | 1009.4 |
| 20260905021547 | 67 | 211 | 0.0 | 1.0 | 0.00 | 0.09 | 0.09 | 46 | 1009.3 |
| 20260905020046 | 68 | 190 | 0.0 | 2.0 | 0.00 | 0.09 | 0.09 | 45 | 1009.3 |
| 20260905014553 | 69 | 285 | 0.0 | 1.0 | 0.00 | 0.09 | 0.09 | 43 | 1009.3 |
| 20260905013044 | 69 | 206 | 0.0 | 3.0 | 0.00 | 0.09 | 0.09 | 42 | 1009.2 |
| 20260905011543 | 70 | 294 | 0.0 | 5.0 | 0.00 | 0.09 | 0.09 | 42 | 1009.1 |
| 20260905010045 | 69 | 249 | 0.0 | 2.0 | 0.00 | 0.09 | 0.09 | 42 | 1009.0 |
| 20260905004541 | 70 | 241 | 0.0 | 2.0 | 0.00 | 0.09 | 0.09 | 40 | 1009.1 |
| 20260905003042 | 70 | 263 | 1.0 | 3.0 | 0.00 | 0.09 | 0.09 | 40 | 1009.1 |
| 20260905001540 | 71 | 286 | 1.0 | 4.0 | 0.00 | 0.09 | 0.09 | 40 | 1009.1 |
| 20260905000039 | 71 | 200 | 0.0 | 4.0 | 0.00 | 0.09 | 0.09 | 40 | 1009.2 |
| 20260904234545 | 70 | 239 | 1.0 | 5.0 | 0.00 | 0.09 | 0.09 | 43 | 1009.3 |
| 20260904233037 | 69 | 205 | 0.0 | 3.0 | 0.00 | 0.09 | 0.09 | 44 | 1009.3 |
| 20260904231536 | 70 | 202 | 1.0 | 4.0 | 0.00 | 0.09 | 0.09 | 44 | 1009.4 |
| 20260904230035 | 71 | 257 | 0.0 | 4.0 | 0.00 | 0.09 | 0.09 | 46 | 1009.3 |
| 20260904224533 | 72 | 189 | 2.0 | 7.0 | 0.00 | 0.09 | 0.09 | 45 | 1009.3 |
| 20260904223043 | 72 | 198 | 1.0 | 5.0 | 0.00 | 0.09 | 0.09 | 48 | 1009.2 |
| 20260904221544 | 70 | 250 | 0.0 | 5.0 | 0.00 | 0.09 | 0.09 | 51 | 1009.2 |
| 20260904220031 | 72 | 109 | 3.0 | 8.0 | 0.00 | 0.09 | 0.09 | 50 | 1009.3 |
| 20260904214528 | 72 | 274 | 1.0 | 5.0 | 0.00 | 0.09 | 0.09 | 53 | 1009.3 |